When you browse on this site, cookies collect data to enhance your experience and personalize the content and advertising you see.
Visit our Privacy Policy to learn more. By continuing to use the site, you agree to this use of cookies and data.
  • In Hungary
  • List of Countries
  • For 7 days
  • Water Temperature
  • Weather Map
  • News
  • Weather Widgets
  • user-avatar
    Login

    Hourly Weather Newcastle upon Tyne

    Today, 1 June, Monday

    Time Temperature Precipitation Wind Pressure Humidity
    00:00 +11°C° 0 mm 1 mps 765 mmHg 84%
    01:00 +11°C° 0 mm 1 mps 764 mmHg 84%
    02:00 +10°C° 0 mm 1 mps 764 mmHg 84%
    03:00 +9°C° 0 mm 0 mps 764 mmHg 83%
    04:00 +11°C° 0 mm 1 mps 764 mmHg 80%
    05:00 +12°C° 0 mm 1 mps 764 mmHg 78%
    06:00 +13°C° 0 mm 1 mps 764 mmHg 75%
    07:00 +15°C° 0 mm 1 mps 765 mmHg 70%
    08:00 +16°C° 0 mm 2 mps 765 mmHg 65%
    09:00 +17°C° 0 mm 3 mps 765 mmHg 61%
    10:00 +18°C° 0 mm 3 mps 765 mmHg 60%
    11:00 +18°C° 0 mm 3 mps 765 mmHg 59%
    12:00 +19°C° 0 mm 4 mps 764 mmHg 58%
    13:00 +19°C° 0 mm 4 mps 764 mmHg 58%
    14:00 +19°C° 0 mm 4 mps 764 mmHg 58%
    15:00 +18°C° 0 mm 4 mps 764 mmHg 58%
    16:00 +18°C° 0 mm 4 mps 764 mmHg 60%
    17:00 +17°C° 0 mm 4 mps 764 mmHg 62%
    18:00 +17°C° 0 mm 4 mps 764 mmHg 64%
    19:00 +14°C° 0 mm 3 mps 764 mmHg 69%
    20:00 +13°C° 0 mm 2 mps 764 mmHg 74%
    21:00 +12°C° 0 mm 1 mps 764 mmHg 80%
    22:00 +11°C° 0 mm 1 mps 764 mmHg 81%
    23:00 +11°C° 0 mm 1 mps 763 mmHg 81%

    Tomorrow, 2 June, Tuesday

    Time Temperature Precipitation Wind Pressure Humidity
    00:00 +10°C° 0 mm 0 mps 763 mmHg 82%
    01:00 +10°C° 0 mm 0 mps 763 mmHg 82%
    02:00 +9°C° 0 mm 0 mps 763 mmHg 81%
    03:00 +9°C° 0 mm 0 mps 762 mmHg 81%
    04:00 +11°C° 0 mm 1 mps 762 mmHg 78%
    05:00 +12°C° 0 mm 1 mps 762 mmHg 76%
    06:00 +13°C° 0 mm 1 mps 762 mmHg 73%
    07:00 +15°C° 0 mm 1 mps 761 mmHg 67%
    08:00 +18°C° 0 mm 1 mps 761 mmHg 62%
    09:00 +19°C° 0 mm 1 mps 761 mmHg 57%
    10:00 +20°C° 0 mm 1 mps 760 mmHg 54%
    11:00 +21°C° 0 mm 1 mps 760 mmHg 51%
    12:00 +21°C° 0 mm 2 mps 760 mmHg 47%
    13:00 +21°C° 0 mm 2 mps 759 mmHg 49%
    14:00 +21°C° 0 mm 2 mps 758 mmHg 51%
    15:00 +21°C° 0 mm 3 mps 758 mmHg 52%
    16:00 +19°C° 0.4 mm 2 mps 757 mmHg 61%
    17:00 +18°C° 0.4 mm 2 mps 757 mmHg 69%
    18:00 +16°C° 0.4 mm 1 mps 756 mmHg 78%
    19:00 +15°C° 0.3 mm 1 mps 756 mmHg 79%
    20:00 +15°C° 0.3 mm 1 mps 756 mmHg 81%
    21:00 +14°C° 0.3 mm 1 mps 756 mmHg 82%
    22:00 +14°C° 0.1 mm 1 mps 755 mmHg 83%
    23:00 +13°C° 0.1 mm 1 mps 755 mmHg 84%

    Day after tomorrow, 3 June, Wednesday

    Time Temperature Precipitation Wind Pressure Humidity
    00:00 +13°C° 0.1 mm 2 mps 755 mmHg 85%
    01:00 +12°C° 0.6 mm 3 mps 754 mmHg 87%
    02:00 +11°C° 0.6 mm 4 mps 754 mmHg 90%
    03:00 +10°C° 0.6 mm 5 mps 754 mmHg 93%
    04:00 +10°C° 0.6 mm 5 mps 754 mmHg 93%
    05:00 +9°C° 0.6 mm 5 mps 754 mmHg 93%
    06:00 +9°C° 0.6 mm 6 mps 754 mmHg 93%
    07:00 +9°C° 0.3 mm 6 mps 754 mmHg 92%
    08:00 +9°C° 0.3 mm 7 mps 754 mmHg 92%
    09:00 +9°C° 0.3 mm 7 mps 754 mmHg 92%
    10:00 +9°C° 0.1 mm 7 mps 754 mmHg 91%
    11:00 +10°C° 0.1 mm 7 mps 754 mmHg 90%
    12:00 +10°C° 0.1 mm 7 mps 755 mmHg 89%
    13:00 +10°C° 0.1 mm 7 mps 754 mmHg 88%
    14:00 +9°C° 0.1 mm 7 mps 754 mmHg 88%
    15:00 +9°C° 0.1 mm 7 mps 754 mmHg 87%
    16:00 +9°C° 0 mm 7 mps 754 mmHg 85%
    17:00 +9°C° 0 mm 6 mps 754 mmHg 82%
    18:00 +9°C° 0 mm 6 mps 753 mmHg 80%
    19:00 +8°C° 0 mm 5 mps 753 mmHg 82%
    20:00 +8°C° 0 mm 4 mps 753 mmHg 84%
    21:00 +7°C° 0 mm 4 mps 753 mmHg 86%
    22:00 +7°C° 0 mm 3 mps 753 mmHg 87%
    23:00 +7°C° 0 mm 3 mps 752 mmHg 88%

    4 June, Thursday

    Time Temperature Precipitation Wind Pressure Humidity
    00:00 +7°C° 0 mm 3 mps 752 mmHg 88%
    01:00 +7°C° 0 mm 2 mps 751 mmHg 88%
    02:00 +7°C° 0 mm 2 mps 751 mmHg 87%
    03:00 +7°C° 0 mm 2 mps 750 mmHg 86%
    04:00 +7°C° 0 mm 2 mps 750 mmHg 83%
    05:00 +9°C° 0 mm 1 mps 749 mmHg 81%
    06:00 +10°C° 0 mm 1 mps 749 mmHg 78%
    07:00 +11°C° 0 mm 1 mps 749 mmHg 75%
    08:00 +12°C° 0 mm 2 mps 748 mmHg 73%
    09:00 +13°C° 0 mm 2 mps 748 mmHg 70%
    10:00 +13°C° 0.1 mm 3 mps 748 mmHg 66%
    11:00 +14°C° 0.1 mm 3 mps 747 mmHg 62%
    12:00 +16°C° 0.1 mm 3 mps 747 mmHg 59%
    13:00 +15°C° 0.1 mm 4 mps 747 mmHg 61%
    14:00 +15°C° 0.1 mm 4 mps 746 mmHg 64%
    15:00 +15°C° 0.1 mm 5 mps 746 mmHg 67%
    16:00 +14°C° 0.1 mm 5 mps 745 mmHg 68%
    17:00 +14°C° 0.1 mm 5 mps 745 mmHg 70%
    18:00 +14°C° 0.1 mm 6 mps 745 mmHg 72%
    19:00 +13°C° 0.2 mm 5 mps 744 mmHg 77%
    20:00 +10°C° 0.2 mm 5 mps 744 mmHg 82%
    21:00 +10°C° 0.2 mm 4 mps 743 mmHg 87%
    22:00 +10°C° 0.9 mm 4 mps 742 mmHg 89%
    23:00 +9°C° 0.9 mm 5 mps 741 mmHg 90%

    5 June, Friday

    Time Temperature Precipitation Wind Pressure Humidity
    00:00 +10°C° 0.9 mm 5 mps 740 mmHg 92%
    01:00 +10°C° 0.6 mm 6 mps 739 mmHg 92%
    02:00 +10°C° 0.6 mm 6 mps 738 mmHg 91%
    03:00 +10°C° 0.6 mm 7 mps 737 mmHg 90%
    04:00 +10°C° 0.1 mm 8 mps 736 mmHg 88%
    05:00 +10°C° 0.1 mm 8 mps 735 mmHg 86%
    06:00 +10°C° 0.1 mm 9 mps 734 mmHg 84%
    07:00 +8°C° 0.1 mm 10 mps 734 mmHg 83%
    08:00 +8°C° 0.1 mm 11 mps 734 mmHg 83%
    09:00 +7°C° 0.1 mm 12 mps 734 mmHg 82%
    10:00 +7°C° 0.4 mm 11 mps 735 mmHg 83%
    11:00 +7°C° 0.4 mm 11 mps 736 mmHg 83%
    12:00 +7°C° 0.4 mm 10 mps 737 mmHg 84%
    13:00 +8°C° 0.2 mm 9 mps 737 mmHg 78%
    14:00 +10°C° 0.2 mm 8 mps 738 mmHg 71%
    15:00 +11°C° 0.2 mm 6 mps 739 mmHg 65%
    16:00 +11°C° 0.5 mm 6 mps 739 mmHg 70%
    17:00 +10°C° 0.5 mm 5 mps 740 mmHg 75%
    18:00 +9°C° 0.5 mm 5 mps 740 mmHg 80%
    19:00 +8°C° 0.3 mm 5 mps 740 mmHg 81%
    20:00 +7°C° 0.3 mm 5 mps 741 mmHg 82%
    21:00 +6°C° 0.3 mm 5 mps 741 mmHg 84%
    22:00 +5°C° 0 mm 6 mps 741 mmHg 84%
    23:00 +4°C° 0 mm 6 mps 741 mmHg 84%

    6 June, Saturday

    Time Temperature Precipitation Wind Pressure Humidity
    00:00 +3°C° 0 mm 7 mps 741 mmHg 85%
    01:00 +2°C° 0 mm 7 mps 741 mmHg 85%
    02:00 +1°C° 0 mm 8 mps 741 mmHg 86%
    03:00 +1°C° 0 mm 8 mps 741 mmHg 86%
    04:00 +2°C° 0 mm 9 mps 741 mmHg 83%
    05:00 +2°C° 0 mm 9 mps 741 mmHg 81%
    06:00 +3°C° 0 mm 10 mps 741 mmHg 78%
    07:00 +5°C° 0 mm 10 mps 741 mmHg 74%
    08:00 +6°C° 0 mm 11 mps 741 mmHg 70%
    09:00 +8°C° 0 mm 11 mps 741 mmHg 66%
    10:00 +7°C° 0.1 mm 11 mps 741 mmHg 70%
    11:00 +7°C° 0.1 mm 11 mps 741 mmHg 74%
    12:00 +7°C° 0.1 mm 11 mps 741 mmHg 78%
    13:00 +7°C° 0.3 mm 11 mps 741 mmHg 80%
    14:00 +7°C° 0.3 mm 11 mps 741 mmHg 82%
    15:00 +7°C° 0.3 mm 11 mps 741 mmHg 84%
    16:00 +7°C° 0.1 mm 11 mps 741 mmHg 84%
    17:00 +7°C° 0.1 mm 10 mps 741 mmHg 85%
    18:00 +7°C° 0.1 mm 10 mps 741 mmHg 85%
    19:00 +7°C° 0.3 mm 10 mps 741 mmHg 86%
    20:00 +8°C° 0.3 mm 10 mps 741 mmHg 87%
    21:00 +8°C° 0.3 mm 10 mps 741 mmHg 89%
    22:00 +8°C° 0.2 mm 9 mps 741 mmHg 89%
    23:00 +9°C° 0.2 mm 8 mps 742 mmHg 90%
    Show more